Regional Weather Roundup
Issued by NWS

Home | Current Version | Previous Version | Text Only | Print | Product List | Glossary Off
Versions: 1 2 3 4 5 6 7 8 9 10 11 12 13 14 15 16 17 18 19 20 21 22 23 24 25 26 27 28 29 30 31 32 33 34 35 36 37 38 39 40 41 42 43 44 45 46 47 48 49 50

000
ASUS43 KDTX 060310
RWRMI
MICHIGAN HOURLY REGIONAL WEATHER ROUNDUP
NATIONAL WEATHER SERVICE DETROIT/PONTIAC MI
1000 PM EST MON DEC 05 2016

NOTE: "FAIR" INDICATES FEW OR NO CLOUDS BELOW 12,000 FEET WITH NO
SIGNIFICANT WEATHER AND/OR OBSTRUCTION TO VISIBILITY.

MIZ047>049-052>055-059>063-066>070-074>076-081>083-060400-
SOUTHEAST LOWER MICHIGAN

CITY           SKY/WX    TMP DP  RH WIND       PRES   REMARKS
ADRIAN         CLEAR     28  28 100 CALM      30.05S
ALMA           PTCLDY    32  31  95 SW6       30.04S FOG     WCI  26
ANN ARBOR      CLEAR     27  26  96 CALM      30.04F
BAD AXE        CLEAR     30  28  92 CALM      30.07R
CARO           MOCLDY    30  30  99 CALM      30.05F FOG
DETROIT CITY   CLEAR     30  28  92 CALM      30.07S
DETROIT        PTCLDY    31  27  85 CALM      30.07S
FLINT          PTCLDY    30  27  88 CALM      30.07R
GROSSE ILE     PTCLDY    30  28  90 CALM      30.05F
HILLSDALE      CLEAR     28  27  93 SE3       30.01S FOG
HOWELL         CLEAR     28  26  93 CALM      30.04F

CITY           SKY/WX    TMP DP  RH WIND       PRES   REMARKS
JACKSON        CLEAR     28  25  88 NE5       30.02F WCI  23
LAMBERTVILLE   CLEAR     28  26  92 CALM      30.06S FOG
LANSING        CLEAR     31  26  82 E5        30.04F WCI  26
LAPEER         NOT AVBL
MASON          CLEAR     29  28  96 CALM      30.04F
MONROE         CLEAR     27  27  99 CALM      30.05F FOG
MT. CLEMENS    CLEAR     28  26  90 CALM      30.06R
PONTIAC        CLEAR     27  24  89 CALM      30.04S
PORT HOPE        N/A     34  30  85 SW6       30.06R WCI  29
PORT HURON     CLEAR     25  25 100 CALM      30.09R
TRI CITIES     PTCLDY    34  30  85 S6        30.05F WCI  29
MIDLAND        FAIR      33  30  86 CALM      30.04S
TROY           CLEAR     31  28  86 CALM      30.08F
SAGINAW HB     CLOUDY    32  30  93 CALM      30.05S
$$
MIZ043>046-050>051-056>058-064>065-071>073-077>080-060400-
SOUTHWEST LOWER MICHIGAN

CITY           SKY/WX    TMP DP  RH WIND       PRES   REMARKS
BATTLE CREEK   CLEAR     30  28  92 CALM      30.02F
BENTON HARBOR  CLOUDY    32  29  88 SE13      30.00F FOG     WCI  22
BIG RAPIDS     CLOUDY    34  31  88 S3        30.00S FOG
COLDWATER      CLEAR     29  28  97 CALM      30.01S FOG
FREMONT        FAIR      33  29  84 S6        30.01R WCI  28
HOLLAND        PTCLDY    32  28  85 SE8       30.01F WCI  25
GRAND RAPIDS   CLOUDY    32  28  85 SE7       30.03F WCI  26
IONIA          FAIR      30  28  93 SE9       30.03F WCI  22
KALAMAZOO      CLOUDY    31  27  85 E5        30.02F WCI  26
LUDINGTON      CLOUDY    38  34  87 SE5       29.98S WCI  34
MARSHALL       CLEAR     28  27  97 CALM      30.01F
MOUNT PLEASANT CLOUDY    33  31  94 CALM      30.02S
MUSKEGON       MOCLDY    33  29  85 SE8       30.02S WCI  26
SOUTH HAVEN    CLOUDY    33  31  94 SE7       30.00F WCI  26
$$
MIZ016>042-060400-
NORTHERN LOWER MICHIGAN

CITY           SKY/WX    TMP DP  RH WIND       PRES   REMARKS
ALPENA         MOCLDY    33  30  88 S3        30.03S
BEAVER ISLAND  CLOUDY    42  35  75 SW6       29.97F
BELLAIRE       PTCLDY    30  29  99 CALM      30.01S FOG
CADILLAC       PTCLDY    32  30  93 S3        29.98S
CHARLEVOIX     PTCLDY    36  32  87 SE5       30.02S WCI  32
FRANKFORT      MOCLDY    38  35  87 SE6       29.97F WCI  34
GAYLORD        PTCLDY    31  26  82 CALM      29.99R
GRAYLING       CLEAR     26  25  98 CALM      30.01R FOG
HARBOR SPRINGS CLOUDY    37  32  82 SW3       30.00F
HOUGHTON LAKE  PTCLDY    30  27  88 CALM      30.01R
MANISTEE       CLOUDY    32  30  92 E6        29.98S WCI  26
OSCODA         CLEAR     28  27  95 SW3       30.04R FOG
PELLSTON       MOCLDY    37  30  75 CALM      30.01R
ROGERS CITY    CLOUDY    34  31  86 S5        30.04R WCI  30
TRAVERSE CITY  PTCLDY    35  30  82 SE3       29.99R
$$
MIZ007>008-015-060400-
EASTERN UPPER MICHIGAN

CITY           SKY/WX    TMP DP  RH WIND       PRES   REMARKS
KINROSS        CLOUDY    30  28  92 CALM      29.99R
MACKINAC ISLAN CLOUDY    38  32  81 S7        30.00R WCI  32
NEWBERRY       PTCLDY    29  29  97 SE3       29.96S
S. S. MARIE    CLOUDY    33  29  85 CALM      29.99R
MUNISING         N/A     34  32  92 S7        29.92F WCI  28
$$
MIZ004>006-011>014-085-060400-
CENTRAL UPPER MICHIGAN

CITY           SKY/WX    TMP DP  RH WIND       PRES   REMARKS
MANISTIQUE     CLOUDY    36  33  92 CALM      29.95S
ESCANABA       CLOUDY    34  32  92 CALM      29.95S
MENOMINEE      CLOUDY    35  32  88 E3        29.93  FOG
SAWYER-GWINN   CLOUDY    30  30 100 SW7       29.90F WCI  23
$$
MIZ001>003-009>011-084-060400-
WESTERN UPPER MICHIGAN

CITY           SKY/WX    TMP DP  RH WIND       PRES   REMARKS
IRON MOUNTAIN  CLOUDY    33  28  81 E6        29.88F WCI  28
HOUGHTON       LGT RAIN  35  29  78 SE7       29.85F WCI  29
COPPER HARBOR    N/A     32  31  96 S3        29.88F
IRONWOOD       CLOUDY    37  32  82 SE14      29.74F WCI  28
$$

ABBREVIATIONS USED IN REMARKS
   TC - TEMPERATURE IN CELSIUS
  WCI - WIND CHILL INDEX
   HX - HEAT INDEX
  VSB - VISIBILITY




USA.gov is the U.S. government's official web portal to all federal, state and local government web resources and services.